When you browse on this site, cookies collect data to enhance your experience and personalize the content and advertising you see.
Visit our Privacy Policy to learn more. By continuing to use the site, you agree to this use of cookies and data.
  • In Czech Republic
  • List of Countries
  • For 7 days
  • Water Temperature
  • Satellite Maps
  • Weather Map
  • Weather Widgets
  • user-avatar
    Login

    Hourly Weather Taypak

    Today, 22 January, Tuesday

    Time Temperature Precipitation Wind Pressure Humidity
    00:00 -11°C° 0 mm 8 mps 763 mmHg 85%
    01:00 -10°C° 0.1 mm 8 mps 763 mmHg 88%
    02:00 -8°C° 0.1 mm 8 mps 762 mmHg 90%
    03:00 -8°C° 0 mm 9 mps 762 mmHg 93%
    04:00 -5°C° 0.2 mm 9 mps 761 mmHg 93%
    05:00 -4°C° 0.2 mm 9 mps 761 mmHg 93%
    06:00 -3°C° 0.2 mm 9 mps 760 mmHg 93%
    07:00 -2°C° 0.8 mm 8 mps 760 mmHg 94%
    08:00 -2°C° 0.8 mm 8 mps 760 mmHg 95%
    09:00 -2°C° 0 mm 8 mps 760 mmHg 95%
    10:00 -2°C° 0.8 mm 7 mps 761 mmHg 96%
    11:00 -3°C° 0.8 mm 6 mps 761 mmHg 97%
    12:00 -2°C° 0.8 mm 5 mps 761 mmHg 98%
    13:00 -4°C° 0.3 mm 5 mps 762 mmHg 95%
    14:00 -6°C° 0.3 mm 5 mps 762 mmHg 93%
    15:00 -8°C° 0 mm 5 mps 763 mmHg 88%
    16:00 -11°C° 0 mm 5 mps 763 mmHg 88%
    17:00 -12°C° 0 mm 4 mps 764 mmHg 89%
    18:00 -14°C° 0 mm 4 mps 764 mmHg 90%
    19:00 -15°C° 0 mm 4 mps 764 mmHg 89%
    20:00 -16°C° 0 mm 4 mps 765 mmHg 89%
    21:00 -17°C° 0 mm 4 mps 765 mmHg 88%
    22:00 -17°C° 0 mm 3 mps 766 mmHg 88%
    23:00 -17°C° 0 mm 3 mps 766 mmHg 88%

    Tomorrow, 23 January, Wednesday

    Time Temperature Precipitation Wind Pressure Humidity
    00:00 -17°C° 0 mm 3 mps 767 mmHg 88%
    01:00 -18°C° 0 mm 3 mps 767 mmHg 88%
    02:00 -18°C° 0 mm 3 mps 767 mmHg 89%
    03:00 -18°C° 0 mm 3 mps 767 mmHg 90%
    04:00 -19°C° 0 mm 3 mps 768 mmHg 91%
    05:00 -19°C° 0 mm 3 mps 768 mmHg 91%
    06:00 -21°C° 0 mm 3 mps 768 mmHg 92%
    07:00 -19°C° 0 mm 3 mps 769 mmHg 92%
    08:00 -19°C° 0 mm 3 mps 769 mmHg 91%
    09:00 -18°C° 0 mm 3 mps 770 mmHg 91%
    10:00 -17°C° 0 mm 3 mps 770 mmHg 90%
    11:00 -16°C° 0 mm 3 mps 770 mmHg 89%
    12:00 -15°C° 0 mm 3 mps 771 mmHg 88%
    13:00 -15°C° 0 mm 3 mps 771 mmHg 89%
    14:00 -15°C° 0 mm 2 mps 771 mmHg 90%
    15:00 -15°C° 0 mm 2 mps 771 mmHg 92%
    16:00 -16°C° 0 mm 2 mps 772 mmHg 92%
    17:00 -18°C° 0 mm 2 mps 772 mmHg 93%
    18:00 -19°C° 0 mm 2 mps 772 mmHg 94%
    19:00 -20°C° 0 mm 2 mps 773 mmHg 94%
    20:00 -21°C° 0 mm 2 mps 773 mmHg 94%
    21:00 -21°C° 0 mm 2 mps 773 mmHg 94%
    22:00 -23°C° 0 mm 2 mps 774 mmHg 93%
    23:00 -23°C° 0 mm 2 mps 774 mmHg 93%

    Day after tomorrow, 24 January, Thursday

    Time Temperature Precipitation Wind Pressure Humidity
    00:00 -23°C° 0 mm 2 mps 774 mmHg 92%
    01:00 -23°C° 0 mm 2 mps 774 mmHg 92%
    02:00 -23°C° 0 mm 2 mps 775 mmHg 91%
    03:00 -25°C° 0 mm 3 mps 775 mmHg 91%
    04:00 -24°C° 0 mm 3 mps 775 mmHg 90%
    05:00 -24°C° 0 mm 3 mps 775 mmHg 90%
    06:00 -24°C° 0 mm 3 mps 775 mmHg 90%
    07:00 -24°C° 0 mm 4 mps 775 mmHg 88%
    08:00 -23°C° 0 mm 4 mps 775 mmHg 87%
    09:00 -22°C° 0 mm 5 mps 775 mmHg 86%
    10:00 -21°C° 0 mm 5 mps 775 mmHg 85%
    11:00 -20°C° 0 mm 6 mps 774 mmHg 84%
    12:00 -18°C° 0 mm 6 mps 774 mmHg 83%
    13:00 -17°C° 0 mm 6 mps 774 mmHg 83%
    14:00 -17°C° 0 mm 6 mps 773 mmHg 83%
    15:00 -16°C° 0 mm 6 mps 773 mmHg 82%
    16:00 -16°C° 0 mm 6 mps 772 mmHg 82%
    17:00 -16°C° 0 mm 6 mps 772 mmHg 82%
    18:00 -17°C° 0 mm 7 mps 772 mmHg 82%
    19:00 -17°C° 0 mm 6 mps 771 mmHg 82%
    20:00 -17°C° 0 mm 6 mps 771 mmHg 81%
    21:00 -17°C° 0 mm 6 mps 770 mmHg 81%
    22:00 -17°C° 0 mm 6 mps 770 mmHg 82%
    23:00 -17°C° 0 mm 6 mps 770 mmHg 82%

    25 January, Friday

    Time Temperature Precipitation Wind Pressure Humidity
    00:00 -17°C° 0 mm 6 mps 769 mmHg 83%
    01:00 -17°C° 0 mm 6 mps 769 mmHg 85%
    02:00 -17°C° 0 mm 6 mps 769 mmHg 88%
    03:00 -17°C° 0 mm 5 mps 768 mmHg 90%
    04:00 -15°C° 0 mm 5 mps 768 mmHg 92%
    05:00 -14°C° 0 mm 5 mps 768 mmHg 93%
    06:00 -13°C° 0 mm 5 mps 768 mmHg 95%
    07:00 -12°C° 0 mm 5 mps 768 mmHg 95%
    08:00 -11°C° 0 mm 5 mps 768 mmHg 95%
    09:00 -8°C° 0 mm 5 mps 768 mmHg 94%
    10:00 -7°C° 0 mm 5 mps 767 mmHg 94%
    11:00 -7°C° 0 mm 4 mps 767 mmHg 94%
    12:00 -5°C° 0 mm 4 mps 767 mmHg 93%
    13:00 -5°C° 0 mm 4 mps 767 mmHg 93%
    14:00 -5°C° 0 mm 3 mps 766 mmHg 93%
    15:00 -4°C° 0 mm 3 mps 766 mmHg 93%
    16:00 -5°C° 0 mm 3 mps 766 mmHg 94%
    17:00 -5°C° 0 mm 3 mps 766 mmHg 94%
    18:00 -5°C° 0 mm 3 mps 766 mmHg 95%
    19:00 -6°C° 0 mm 3 mps 766 mmHg 95%
    20:00 -6°C° 0 mm 3 mps 766 mmHg 95%
    21:00 -5°C° 0 mm 2 mps 766 mmHg 95%
    22:00 -7°C° 0 mm 3 mps 766 mmHg 95%
    23:00 -7°C° 0 mm 3 mps 766 mmHg 96%

    26 January, Saturday

    Time Temperature Precipitation Wind Pressure Humidity
    00:00 -7°C° 0 mm 3 mps 766 mmHg 96%
    01:00 -7°C° 0 mm 3 mps 766 mmHg 96%
    02:00 -6°C° 0 mm 3 mps 766 mmHg 96%
    03:00 -6°C° 0 mm 3 mps 765 mmHg 96%
    04:00 -6°C° 0 mm 3 mps 765 mmHg 96%
    05:00 -6°C° 0 mm 3 mps 765 mmHg 96%
    06:00 -6°C° 0 mm 3 mps 765 mmHg 96%
    07:00 -7°C° 0 mm 4 mps 765 mmHg 95%
    08:00 -7°C° 0 mm 4 mps 765 mmHg 95%
    09:00 -8°C° 0 mm 4 mps 765 mmHg 95%
    10:00 -7°C° 0 mm 4 mps 764 mmHg 94%
    11:00 -5°C° 0 mm 4 mps 764 mmHg 93%
    12:00 -5°C° 0 mm 4 mps 764 mmHg 93%
    13:00 -5°C° 0 mm 4 mps 763 mmHg 93%
    14:00 -5°C° 0 mm 4 mps 763 mmHg 93%
    15:00 -5°C° 0 mm 4 mps 762 mmHg 93%
    16:00 -7°C° 0 mm 4 mps 762 mmHg 93%
    17:00 -8°C° 0 mm 4 mps 762 mmHg 94%
    18:00 -9°C° 0 mm 4 mps 762 mmHg 94%
    19:00 -9°C° 0 mm 4 mps 761 mmHg 94%
    20:00 -9°C° 0 mm 4 mps 761 mmHg 93%
    21:00 -9°C° 0 mm 4 mps 760 mmHg 93%
    22:00 -9°C° 0 mm 4 mps 760 mmHg 93%
    23:00 -9°C° 0 mm 4 mps 759 mmHg 93%

    27 January, Sunday

    Time Temperature Precipitation Wind Pressure Humidity
    00:00 -9°C° 0 mm 4 mps 759 mmHg 93%
    01:00 -10°C° 0 mm 4 mps 758 mmHg 93%
    02:00 -10°C° 0 mm 4 mps 758 mmHg 93%
    03:00 -10°C° 0 mm 4 mps 757 mmHg 94%
    04:00 -11°C° 0 mm 4 mps 757 mmHg 94%
    05:00 -11°C° 0 mm 4 mps 757 mmHg 94%
    06:00 -12°C° 0 mm 4 mps 757 mmHg 95%
    07:00 -12°C° 0 mm 5 mps 757 mmHg 95%
    08:00 -12°C° 0 mm 5 mps 757 mmHg 94%
    09:00 -11°C° 0 mm 5 mps 757 mmHg 94%
    10:00 -10°C° 0 mm 5 mps 756 mmHg 94%
    11:00 -10°C° 0 mm 5 mps 756 mmHg 94%
    12:00 -8°C° 0 mm 5 mps 756 mmHg 93%
    13:00 -8°C° 0 mm 5 mps 756 mmHg 93%
    14:00 -8°C° 0 mm 5 mps 756 mmHg 92%
    15:00 -8°C° 0 mm 5 mps 756 mmHg 91%
    16:00 -10°C° 0 mm 5 mps 756 mmHg 92%
    17:00 -11°C° 0 mm 5 mps 756 mmHg 92%
    18:00 -11°C° 0 mm 5 mps 757 mmHg 93%
    19:00 -12°C° 0 mm 5 mps 756 mmHg 93%
    20:00 -12°C° 0 mm 5 mps 756 mmHg 94%
    21:00 -12°C° 0 mm 4 mps 756 mmHg 94%
    22:00 -12°C° 0.2 mm 4 mps 756 mmHg 94%
    23:00 -14°C° 0.2 mm 4 mps 757 mmHg 95%
    Show more